Wind_Speed
51 50 49 48 46 45 43 41 39 37 35 33 32 31 31 31 32 33 34 34 33 31 29 28 28 28 30 32 35 36 37 38 38 38 38 38 38 38 36 36 36 36 35
56 56 55 53 52 50 49 46 44 41 39 36 34 33 32 31 32 33 34 34 33 31 29 27 26 26 28 30 32 34 35 36 36 36 36 36 36 35 35 35 34 34 34
62 62 61 59 58 57 54 51 49 46 43 39 36 34 33 32 32 33 34 34 33 31 28 26 24 24 24 26 28 30 31 32 32 33 34 33 33 33 34 34 34 32 32
66 66 66 65 65 64 62 58 54 51 47 44 40 38 36 34 34 33 34 34 33 31 28 25 23 22 22 23 24 26 28 29 30 31 31 31 33 34 33 33 32 31 31
71 72 72 71 70 69 68 64 60 57 52 48 44 42 40 37 36 35 34 34 33 31 28 25 23 22 21 22 22 23 25 26 27 29 30 32 32 32 30 28 27 26 25
78 79 78 79 77 77 75 70 65 62 58 54 49 45 43 40 38 36 35 34 33 30 27 25 23 22 22 21 22 24 26 26 27 28 31 31 29 28 26 24 23 21 20
84 84 84 83 82 81 79 75 71 66 63 59 53 50 46 43 40 38 36 34 32 30 26 23 22 22 22 22 23 24 26 27 27 28 28 27 25 22 20 17 15 14 13
70 72 74 76 78 78 78 76 73 69 66 61 56 52 50 47 43 40 37 35 32 29 26 22 21 21 21 22 23 24 24 24 24 24 22 20 19 17 16 14 13 11 10
48 49 52 55 58 60 63 66 67 66 64 60 56 52 49 46 44 41 38 35 32 29 25 22 20 19 19 22 23 23 22 22 22 20 18 17 15 14 13 11 10 9 9
35 35 35 35 37 40 43 47 50 53 54 53 51 48 46 43 42 40 37 34 31 28 24 21 19 19 18 19 20 21 20 19 18 16 15 14 13 11 10 10 9 9 8
36 34 31 30 28 28 29 32 36 39 42 45 47 45 44 42 41 40 36 33 31 28 24 22 20 18 18 18 18 17 17 16 15 14 13 12 12 11 10 9 8 8 7
39 37 34 31 29 27 25 25 28 32 35 37 43 45 44 42 41 39 36 33 30 26 24 21 20 19 18 18 17 17 16 15 14 14 13 12 11 10 9 9 8 7 7
42 40 37 34 30 29 27 27 27 29 33 36 40 44 44 41 39 38 36 32 29 26 23 21 20 19 18 18 17 17 16 16 15 14 14 13 11 10 10 9 8 7 6
43 41 38 35 32 30 29 27 27 27 32 36 39 42 42 43 40 38 34 30 28 26 24 23 22 21 20 19 18 17 17 16 15 14 14 13 12 11 10 9 8 8 7
42 40 37 35 33 31 29 28 27 27 30 36 41 41 41 42 40 37 34 30 28 26 25 23 23 22 21 19 18 17 17 16 15 14 14 13 12 11 11 10 9 8 8
38 36 34 32 31 31 30 29 29 28 28 31 37 41 42 41 40 38 35 32 30 27 25 24 23 22 21 20 19 17 16 16 15 14 13 13 12 12 12 11 11 10 9
34 33 32 30 29 29 29 29 27 26 26 28 33 38 40 42 41 38 35 33 30 28 26 25 24 23 21 20 19 17 16 15 15 14 14 14 13 13 13 13 12 12 11
29 28 27 27 26 25 26 27 25 25 26 28 33 39 40 42 41 38 36 33 31 28 27 25 24 23 21 20 18 17 16 16 15 14 14 15 15 15 15 15 14 13 12
22 21 21 23 24 24 24 25 24 25 27 30 35 40 41 43 41 38 35 33 31 29 27 25 24 22 21 19 18 17 16 15 15 15 15 16 16 16 16 16 15 15 14
15 16 17 19 21 21 23 24 25 27 30 33 36 39 40 41 40 38 35 34 33 31 28 26 24 22 20 19 17 16 15 15 14 15 16 17 17 17 17 17 17 16 16
8 11 15 18 20 21 23 25 27 30 33 35 38 40 39 38 37 35 33 32 31 29 27 25 23 22 20 18 17 16 15 14 14 15 16 17 18 18 18 18 18 18 18
8 13 17 19 21 22 24 27 28 32 35 37 40 40 39 37 36 35 33 32 30 28 26 24 23 21 19 17 16 15 15 14 14 15 16 17 18 19 19 19 19 19 20
15 18 20 21 22 24 27 28 31 36 38 39 40 40 39 38 36 35 33 32 30 28 26 23 21 19 17 16 15 15 14 14 14 15 16 16 17 18 19 19 20 20 21
20 21 23 24 25 27 29 31 34 37 38 40 39 38 38 37 36 34 32 30 28 26 24 22 19 18 16 15 15 14 14 14 14 15 15 16 17 17 18 19 19 20 21
24 25 26 27 28 30 31 33 36 38 38 38 37 38 36 35 34 32 30 28 25 23 21 19 17 16 15 14 14 14 14 14 14 15 15 16 17 17 17 18 19 20 21
27 28 29 30 31 32 33 34 36 37 36 35 35 35 34 33 32 30 27 25 23 21 19 16 15 14 14 13 14 14 14 14 15 15 15 16 17 17 18 19 20 21 22
Wind_Direction
275 276 277 278 280 281 282 282 283 283 284 285 288 291 295 301 306 311 313 314 311 307 301 293 283 272 264 258 256 254 255 255 257 257 257 257 257 256 254 253 253 253 250
274 275 276 277 279 280 280 280 280 280 281 282 284 287 291 296 301 306 310 312 311 308 303 296 286 275 264 258 255 252 253 253 253 254 254 253 252 251 249 249 250 251 249
274 274 275 275 276 277 277 278 278 278 278 279 281 284 287 291 295 300 305 308 310 307 304 297 288 278 266 258 252 250 250 249 248 249 248 246 246 246 245 246 249 251 251
274 274 274 274 275 275 274 274 274 274 274 275 276 280 283 286 290 295 299 303 306 305 303 296 289 280 268 258 251 247 247 247 246 244 243 242 242 242 243 245 247 248 249
273 272 272 272 272 272 271 270 269 269 270 272 274 276 278 280 284 289 293 297 301 301 300 296 289 279 268 259 254 248 246 244 242 240 239 239 237 238 240 241 242 242 244
272 271 271 270 269 270 270 269 268 267 268 269 271 272 273 275 278 282 286 290 294 295 295 292 287 279 266 257 252 248 243 241 239 237 236 236 235 235 236 237 236 237 238
274 272 272 271 270 269 268 268 266 265 266 266 266 267 268 269 272 274 278 281 285 288 289 286 280 275 263 253 248 245 239 235 233 233 231 229 230 232 234 235 232 229 229
278 276 274 273 270 268 266 265 263 261 261 260 261 261 262 264 265 266 269 272 276 278 280 278 273 268 260 253 244 240 235 233 229 227 228 229 227 224 223 223 219 218 224
288 283 280 277 273 269 265 263 261 258 257 255 255 255 256 256 256 257 259 262 265 267 269 268 264 260 257 251 240 237 235 231 226 222 219 217 213 209 208 209 211 216 223
299 295 291 287 280 273 267 261 256 252 249 246 243 242 243 245 246 247 249 252 255 257 258 256 253 249 247 242 237 233 229 221 215 210 204 199 197 198 199 202 208 214 223
295 295 293 290 285 279 270 260 251 245 240 234 229 228 230 232 235 237 240 243 245 247 247 244 241 238 236 234 232 226 216 207 197 191 188 188 189 192 197 202 207 215 226
291 290 288 286 281 278 271 264 255 245 234 226 219 216 218 220 227 230 232 234 236 236 235 232 228 225 224 221 216 209 200 193 187 184 184 186 189 194 200 206 211 219 230
288 286 284 280 276 273 269 263 257 247 235 224 217 213 213 213 219 223 223 224 227 225 223 219 216 213 210 206 202 196 192 187 183 183 185 188 193 199 205 209 213 221 231
285 282 277 273 270 267 265 260 253 248 237 225 216 214 210 206 209 213 213 215 216 216 213 209 208 206 202 198 194 190 187 185 186 189 192 196 201 205 208 210 215 223 231
284 279 273 268 263 259 257 255 250 245 241 230 220 215 207 200 198 202 204 206 207 206 205 203 201 197 192 189 188 186 187 189 192 195 199 203 207 210 211 213 217 221 226
282 276 270 264 257 253 250 249 246 243 237 227 219 214 201 192 189 192 194 197 198 198 196 194 191 188 187 187 188 189 191 194 197 200 204 209 211 212 213 215 218 221 227
280 272 265 258 252 248 244 241 238 234 229 219 213 206 196 185 184 187 189 192 192 191 189 187 187 186 187 189 191 193 196 199 201 205 209 211 213 215 217 219 222 227 231
277 267 258 248 242 238 232 228 226 223 217 208 201 195 188 181 182 184 186 188 187 185 184 184 185 186 188 191 194 198 201 203 206 210 214 217 218 220 222 225 228 233 239
270 258 246 235 228 224 219 216 213 209 202 194 188 185 180 180 181 181 182 183 181 182 182 183 184 186 189 192 197 202 204 207 212 217 221 223 224 225 227 230 235 240 247
258 240 225 215 210 207 203 200 197 192 187 182 179 178 178 179 179 179 180 179 178 178 179 181 183 186 189 193 198 203 207 212 217 222 226 228 229 231 234 238 243 249 255
229 206 196 190 187 185 184 183 182 179 176 175 173 173 175 175 174 176 177 176 176 177 178 180 182 185 190 194 200 205 211 217 224 228 231 233 235 237 241 245 251 257 264
147 158 161 162 165 167 168 169 171 171 169 168 168 168 169 170 172 174 174 174 175 175 176 178 181 184 189 195 201 208 215 223 230 235 238 239 241 243 246 250 256 262 269
125 135 141 145 148 151 153 157 160 163 163 163 164 165 166 168 169 171 172 173 173 174 175 177 180 184 190 197 204 212 220 228 235 241 244 246 247 248 251 255 260 266 272
119 125 130 134 138 142 148 153 157 159 161 162 162 164 165 165 166 168 169 171 172 173 174 177 181 186 193 201 209 217 225 233 240 245 249 250 251 254 257 261 265 271 276
115 120 124 128 132 137 142 147 152 155 156 157 161 162 163 164 165 166 168 170 172 173 175 180 185 191 199 207 215 223 231 237 242 248 252 253 255 258 262 267 272 277 281
113 117 122 126 130 133 138 143 149 152 154 156 158 160 161 163 165 167 168 171 173 177 181 186 192 199 208 216 223 231 236 240 244 248 252 255 258 262 267 273 278 281 284
Height
5770 5767 5766 5764 5763 5761 5760 5758 5757 5756 5755 5753 5751 5749 5746 5744 5740 5737 5733 5728 5724 5720 5716 5713 5711 5711 5711 5712 5714 5716 5718 5720 5722 5723 5724 5726 5728 5729 5731 5733 5735 5736 5738
5754 5751 5749 5748 5747 5746 5745 5745 5744 5743 5743 5742 5740 5739 5737 5734 5732 5729 5725 5721 5717 5713 5709 5706 5704 5703 5703 5704 5706 5707 5709 5711 5713 5714 5715 5717 5719 5721 5722 5724 5726 5728 5730
5736 5734 5732 5730 5730 5729 5729 5729 5730 5730 5730 5730 5729 5728 5726 5725 5723 5720 5717 5714 5710 5706 5703 5700 5698 5696 5695 5696 5697 5699 5701 5702 5704 5706 5707 5709 5711 5713 5715 5717 5719 5721 5723
5717 5715 5713 5711 5710 5710 5711 5712 5713 5714 5716 5716 5717 5716 5716 5715 5714 5712 5709 5707 5703 5700 5696 5694 5692 5690 5689 5689 5690 5692 5693 5695 5697 5699 5700 5702 5704 5706 5708 5710 5712 5714 5717
5697 5694 5692 5690 5690 5690 5691 5693 5695 5697 5699 5701 5703 5704 5704 5704 5704 5703 5701 5699 5696 5693 5690 5687 5685 5684 5683 5684 5684 5685 5687 5688 5690 5692 5694 5697 5698 5701 5702 5704 5706 5708 5711
5673 5670 5668 5667 5667 5668 5669 5672 5675 5678 5681 5685 5688 5690 5691 5693 5693 5693 5692 5691 5689 5686 5684 5681 5679 5678 5677 5678 5679 5680 5682 5683 5685 5687 5689 5691 5693 5696 5697 5699 5702 5704 5706
5645 5642 5640 5639 5641 5642 5644 5648 5652 5657 5662 5667 5671 5675 5678 5680 5681 5682 5683 5682 5681 5679 5677 5675 5674 5673 5672 5673 5674 5675 5676 5678 5680 5682 5684 5686 5689 5691 5693 5695 5698 5700 5703
5615 5613 5611 5611 5612 5614 5617 5622 5628 5634 5640 5647 5652 5658 5662 5666 5669 5671 5673 5673 5673 5672 5671 5670 5669 5668 5668 5668 5670 5671 5672 5674 5676 5678 5680 5682 5685 5688 5690 5693 5695 5698 5700
5594 5591 5589 5587 5587 5588 5591 5595 5601 5609 5617 5625 5633 5640 5646 5651 5655 5659 5662 5663 5664 5664 5664 5664 5664 5663 5664 5664 5666 5667 5669 5670 5672 5674 5677 5680 5683 5685 5688 5691 5694 5696 5698
5581 5578 5575 5572 5571 5570 5571 5574 5579 5585 5594 5603 5613 5621 5629 5635 5641 5646 5650 5653 5655 5656 5657 5657 5658 5659 5660 5661 5662 5663 5665 5667 5669 5672 5675 5678 5681 5684 5687 5690 5693 5695 5697
5571 5568 5565 5563 5561 5559 5559 5560 5563 5568 5575 5583 5594 5604 5613 5621 5627 5633 5639 5643 5646 5648 5650 5651 5652 5654 5655 5657 5659 5661 5663 5665 5667 5670 5673 5677 5680 5683 5686 5689 5691 5693 5695
5559 5557 5555 5553 5552 5551 5551 5551 5553 5556 5562 5569 5578 5588 5598 5606 5614 5621 5628 5634 5638 5640 5643 5645 5647 5649 5651 5654 5656 5658 5661 5664 5667 5670 5673 5676 5679 5682 5685 5687 5689 5691 5692
5545 5543 5542 5541 5541 5541 5541 5543 5544 5546 5550 5557 5565 5574 5584 5593 5602 5610 5617 5624 5630 5633 5637 5640 5642 5645 5648 5651 5653 5656 5660 5663 5666 5669 5672 5675 5678 5681 5683 5685 5687 5689 5690
5528 5527 5527 5528 5529 5530 5531 5532 5535 5537 5541 5547 5553 5561 5571 5582 5592 5601 5609 5616 5622 5627 5631 5634 5638 5642 5645 5648 5652 5655 5659 5662 5665 5668 5671 5674 5677 5679 5681 5683 5685 5686 5688
5511 5510 5511 5513 5515 5518 5520 5522 5525 5528 5531 5536 5543 5551 5560 5572 5584 5594 5602 5610 5616 5622 5626 5630 5634 5639 5643 5647 5650 5654 5658 5661 5664 5667 5670 5673 5675 5677 5679 5681 5683 5684 5686
5494 5494 5495 5498 5501 5505 5508 5511 5514 5518 5521 5526 5534 5542 5552 5564 5576 5586 5595 5603 5610 5617 5622 5627 5632 5636 5641 5645 5649 5653 5657 5660 5663 5666 5668 5671 5673 5675 5677 5679 5681 5682 5683
5478 5479 5481 5484 5488 5492 5497 5501 5505 5509 5514 5520 5527 5536 5547 5559 5571 5581 5589 5598 5605 5612 5618 5624 5630 5635 5640 5644 5648 5652 5655 5659 5661 5664 5666 5669 5671 5673 5675 5677 5678 5679 5680
5463 5464 5467 5471 5476 5482 5487 5492 5497 5503 5508 5515 5523 5533 5544 5556 5568 5577 5586 5594 5602 5609 5616 5622 5628 5633 5638 5643 5647 5651 5654 5657 5660 5662 5664 5666 5669 5671 5672 5674 5675 5676 5677
5451 5453 5456 5461 5467 5474 5480 5486 5492 5498 5505 5512 5522 5532 5542 5554 5565 5575 5584 5592 5600 5608 5615 5621 5627 5632 5637 5641 5645 5649 5652 5655 5658 5660 5662 5664 5666 5668 5669 5671 5672 5673 5673
5443 5445 5449 5455 5461 5468 5475 5482 5488 5495 5503 5512 5522 5533 5543 5554 5564 5574 5583 5591 5599 5606 5613 5619 5625 5630 5635 5640 5644 5647 5650 5653 5655 5657 5659 5661 5663 5664 5666 5667 5668 5668 5669
5438 5441 5446 5452 5458 5465 5473 5480 5487 5495 5504 5513 5524 5535 5546 5557 5567 5576 5584 5592 5599 5606 5613 5619 5624 5629 5634 5638 5642 5645 5648 5650 5652 5654 5656 5658 5659 5660 5662 5663 5663 5663 5663
5438 5442 5448 5454 5460 5467 5474 5482 5489 5497 5507 5516 5527 5537 5548 5558 5568 5577 5585 5593 5600 5607 5613 5619 5624 5628 5632 5636 5640 5643 5645 5647 5649 5651 5653 5654 5655 5656 5657 5658 5658 5658 5658
5444 5448 5453 5459 5465 5472 5478 5486 5494 5503 5512 5522 5532 5541 5551 5561 5570 5579 5586 5594 5601 5607 5613 5618 5623 5627 5631 5634 5637 5640 5642 5644 5646 5647 5649 5650 5651 5651 5652 5652 5652 5652 5651
5453 5457 5461 5467 5473 5479 5486 5493 5501 5510 5519 5529 5538 5547 5556 5565 5573 5581 5589 5596 5602 5608 5613 5618 5623 5626 5630 5633 5635 5637 5639 5641 5642 5643 5644 5645 5646 5646 5646 5646 5646 5646 5645
5463 5467 5472 5477 5482 5488 5495 5502 5510 5518 5527 5536 5544 5553 5561 5569 5577 5584 5591 5598 5603 5609 5614 5618 5622 5625 5628 5630 5632 5634 5636 5637 5638 5639 5640 5640 5641 5641 5641 5641 5640 5639 5638
5475 5479 5483 5488 5493 5499 5506 5513 5520 5528 5536 5544 5551 5559 5567 5574 5581 5587 5593 5599 5604 5609 5613 5617 5620 5623 5625 5627 5629 5631 5633 5634 5635 5635 5636 5636 5636 5636 5636 5635 5634 5633 5632